Volver al catálogo

ARIANE 42P+ DEB

LostHEO
NORAD 34189·DEBRIS·🇫🇷 France

Lanzado Oct 28, 1992 desde Guiana Space Centre

Loading…

Próximos Pases (próximas 24 horas)

TLE

ObsoletoSource: Space-Track

Época: Jul 25, 2025, 05:42 UTC

1 34189U 92072V   25206.23763769 -.00000279  00000-0 -52857-2 0  9992
2 34189   3.4825  83.5020 6530763 284.9297 309.2276  2.91558283139441

Sigue ARIANE 42P+ DEB en tiempo real con AllMySat

Download on the App Store